| time (UTC) | temp F | wind direction | speed knots | gust knots | rain 1hr in | rain 24hr in | rain mn in | humidity % | barometer mb |
| 20260905223512 | 60 | 241 | 0.0 | 1.7 | 0.00 | 0.07 | 0.00 | 68 | 1024.8 |
| 20260905223010 | 59 | 241 | 0.0 | 1.7 | 0.00 | 0.07 | 0.00 | 69 | 1024.7 |
| 20260905222511 | 59 | 210 | 0.0 | 0.0 | 0.00 | 0.07 | 0.00 | 69 | 1024.9 |
| 20260905222007 | 59 | 210 | 0.0 | 0.0 | 0.00 | 0.07 | 0.00 | 69 | 1024.7 |
| 20260905221507 | 59 | 210 | 0.0 | 0.0 | 0.00 | 0.07 | 0.00 | 69 | 1024.7 |
| 20260905221007 | 59 | 210 | 0.0 | 0.9 | 0.00 | 0.07 | 0.00 | 70 | 1024.7 |
| 20260905220508 | 59 | 210 | 0.0 | 0.9 | 0.00 | 0.07 | 0.00 | 70 | 1024.7 |
| 20260905220004 | 59 | 205 | 0.0 | 1.7 | 0.00 | 0.07 | 0.07 | 70 | 1024.5 |
| 20260905215504 | 59 | 205 | 0.0 | 1.7 | 0.00 | 0.07 | 0.07 | 68 | 1024.5 |
| 20260905215003 | 59 | 205 | 0.0 | 0.9 | 0.00 | 0.07 | 0.07 | 68 | 1024.5 |
| 20260905214506 | 60 | 276 | 0.0 | 1.7 | 0.00 | 0.07 | 0.07 | 66 | 1024.5 |
| 20260905214003 | 60 | 214 | 0.0 | 2.6 | 0.00 | 0.07 | 0.07 | 66 | 1024.5 |
| 20260905213502 | 60 | 214 | 0.0 | 2.6 | 0.00 | 0.07 | 0.07 | 65 | 1024.5 |
| 20260905213002 | 61 | 300 | 0.0 | 2.6 | 0.00 | 0.07 | 0.07 | 64 | 1024.4 |
| 20260905212501 | 61 | 299 | 0.0 | 2.6 | 0.00 | 0.07 | 0.07 | 64 | 1024.3 |
| 20260905212000 | 61 | 183 | 0.0 | 2.6 | 0.00 | 0.07 | 0.07 | 65 | 1024.2 |
| 20260905211604 | 61 | 224 | 0.0 | 0.9 | 0.00 | 0.07 | 0.07 | 64 | 1024.3 |
| 20260905211100 | 61 | 224 | 0.0 | 0.9 | 0.00 | 0.07 | 0.07 | 64 | 1024.1 |
| 20260905210600 | 61 | 224 | 0.0 | 2.6 | 0.00 | 0.07 | 0.07 | 64 | 1024.1 |
| 20260905205556 | 61 | 214 | 0.0 | 2.6 | 0.00 | 0.07 | 0.07 | 63 | 1024.1 |
| 20260905205057 | 61 | 190 | 0.0 | 1.7 | 0.00 | 0.07 | 0.07 | 63 | 1024.0 |
| 20260905204555 | 61 | 218 | 0.0 | 1.7 | 0.00 | 0.07 | 0.07 | 63 | 1024.1 |
| 20260905204055 | 62 | 215 | 0.0 | 2.6 | 0.00 | 0.07 | 0.07 | 62 | 1024.0 |
| 20260905203556 | 62 | 205 | 0.0 | 3.5 | 0.00 | 0.07 | 0.07 | 62 | 1023.9 |
| 20260905203056 | 62 | 33 | 0.0 | 3.5 | 0.00 | 0.07 | 0.07 | 61 | 1023.8 |
| 20260905202551 | 62 | 257 | 0.0 | 2.6 | 0.00 | 0.07 | 0.07 | 60 | 1023.6 |
| 20260905202051 | 63 | 256 | 0.0 | 4.3 | 0.00 | 0.07 | 0.07 | 60 | 1023.6 |
| 20260905201550 | 63 | 208 | 0.0 | 4.3 | 0.00 | 0.07 | 0.07 | 61 | 1023.5 |
| 20260905201050 | 62 | 207 | 0.9 | 3.5 | 0.00 | 0.07 | 0.07 | 61 | 1023.4 |
| 20260905200549 | 63 | 185 | 0.0 | 2.6 | 0.00 | 0.07 | 0.07 | 60 | 1023.3 |
| 20260905200149 | 63 | 215 | 0.0 | 2.6 | 0.00 | 0.07 | 0.07 | 59 | 1023.3 |
| 20260905195552 | 63 | 226 | 0.0 | 5.2 | 0.00 | 0.07 | 0.07 | 59 | 1023.2 |
| 20260905195056 | 63 | 189 | 0.9 | 5.2 | 0.00 | 0.07 | 0.07 | 58 | 1023.1 |
| 20260905194551 | 63 | 210 | 0.0 | 5.2 | 0.00 | 0.07 | 0.07 | 59 | 1023.0 |
| 20260905194051 | 63 | 202 | 0.9 | 6.1 | 0.00 | 0.07 | 0.07 | 59 | 1022.9 |
| 20260905193550 | 63 | 212 | 0.9 | 6.1 | 0.00 | 0.07 | 0.07 | 59 | 1022.9 |
| 20260905193050 | 63 | 213 | 0.0 | 3.5 | 0.00 | 0.07 | 0.07 | 59 | 1022.8 |
| 20260905192549 | 63 | 214 | 0.0 | 6.1 | 0.00 | 0.07 | 0.07 | 59 | 1022.9 |
| 20260905192048 | 64 | 148 | 0.0 | 3.5 | 0.00 | 0.07 | 0.07 | 59 | 1022.8 |
| 20260905191649 | 64 | 210 | 0.0 | 3.5 | 0.00 | 0.07 | 0.07 | 58 | 1022.7 |
| 20260905191048 | 64 | 187 | 0.0 | 4.3 | 0.00 | 0.07 | 0.07 | 58 | 1022.8 |
| 20260905190549 | 64 | 294 | 0.9 | 4.3 | 0.00 | 0.07 | 0.07 | 58 | 1022.8 |
| 20260905190147 | 64 | 299 | 0.0 | 2.6 | 0.00 | 0.07 | 0.07 | 59 | 1022.7 |
| 20260905185540 | 64 | 249 | 0.0 | 1.7 | 0.00 | 0.07 | 0.07 | 59 | 1022.6 |
| 20260905185039 | 64 | 210 | 0.0 | 3.5 | 0.00 | 0.07 | 0.07 | 58 | 1022.5 |
| 20260905184552 | 64 | 282 | 0.0 | 4.3 | 0.00 | 0.07 | 0.07 | 58 | 1022.5 |
| 20260905184038 | 64 | 243 | 0.0 | 4.3 | 0.00 | 0.07 | 0.07 | 58 | 1022.5 |
| 20260905183539 | 64 | 209 | 0.9 | 3.5 | 0.00 | 0.07 | 0.07 | 59 | 1022.4 |
| 20260905183043 | 64 | 214 | 0.0 | 2.6 | 0.00 | 0.07 | 0.07 | 59 | 1022.2 |
| 20260905182536 | 64 | 203 | 0.0 | 2.6 | 0.00 | 0.07 | 0.07 | 60 | 1022.2 |
| 20260905182035 | 64 | 215 | 0.0 | 2.6 | 0.00 | 0.07 | 0.07 | 60 | 1022.2 |
| 20260905181534 | 64 | 266 | 0.0 | 1.7 | 0.00 | 0.07 | 0.07 | 59 | 1022.1 |
| 20260905181033 | 64 | 280 | 0.0 | 2.6 | 0.00 | 0.07 | 0.07 | 59 | 1022.0 |
| 20260905180522 | 64 | 20 | 0.0 | 2.6 | 0.00 | 0.07 | 0.07 | 59 | 1021.9 |
| 20260905180023 | 65 | 197 | 0.0 | 1.7 | 0.00 | 0.07 | 0.07 | 58 | 1021.8 |
| 20260905175524 | 65 | 195 | 0.0 | 2.6 | 0.00 | 0.07 | 0.07 | 57 | 1021.6 |
| 20260905175021 | 65 | 164 | 0.0 | 1.7 | 0.00 | 0.07 | 0.07 | 57 | 1021.6 |
| 20260905174520 | 66 | 166 | 0.0 | 3.5 | 0.00 | 0.07 | 0.07 | 55 | 1021.5 |
| 20260905174019 | 67 | 155 | 0.9 | 5.2 | 0.00 | 0.07 | 0.07 | 55 | 1021.4 |
| 20260905173519 | 67 | 278 | 0.0 | 3.5 | 0.00 | 0.07 | 0.07 | 55 | 1021.4 |
| 20260905173018 | 67 | 281 | 0.0 | 2.6 | 0.00 | 0.07 | 0.07 | 55 | 1021.3 |
| 20260905172517 | 67 | 172 | 0.0 | 5.2 | 0.00 | 0.07 | 0.07 | 54 | 1021.2 |
| 20260905172016 | 68 | 192 | 0.9 | 3.5 | 0.00 | 0.07 | 0.07 | 53 | 1021.1 |
| 20260905171516 | 68 | 177 | 0.9 | 6.1 | 0.00 | 0.07 | 0.07 | 52 | 1021.0 |
| 20260905171017 | 68 | 226 | 0.9 | 6.1 | 0.00 | 0.07 | 0.07 | 53 | 1020.9 |
| 20260905170515 | 68 | 331 | 0.9 | 4.3 | 0.00 | 0.07 | 0.07 | 52 | 1020.9 |
| 20260905170014 | 68 | 274 | 0.9 | 4.3 | 0.00 | 0.07 | 0.07 | 53 | 1020.8 |
| 20260905165512 | 69 | 107 | 0.9 | 3.5 | 0.00 | 0.07 | 0.07 | 53 | 1020.7 |
| 20260905165013 | 69 | 77 | 0.0 | 4.3 | 0.00 | 0.07 | 0.07 | 53 | 1020.6 |
| 20260905164512 | 69 | 82 | 0.0 | 3.5 | 0.00 | 0.07 | 0.07 | 53 | 1020.6 |
| 20260905164012 | 69 | 74 | 0.0 | 3.5 | 0.00 | 0.07 | 0.07 | 53 | 1020.4 |
| 20260905163512 | 69 | 73 | 0.9 | 4.3 | 0.00 | 0.07 | 0.07 | 54 | 1020.4 |
| 20260905163012 | 69 | 216 | 0.9 | 4.3 | 0.00 | 0.07 | 0.07 | 52 | 1020.3 |
| 20260905162510 | 69 | 349 | 0.9 | 4.3 | 0.00 | 0.07 | 0.07 | 53 | 1020.4 |
| 20260905162009 | 70 | 192 | 0.9 | 4.3 | 0.00 | 0.07 | 0.07 | 52 | 1020.1 |
| 20260905161509 | 70 | 220 | 0.0 | 6.1 | 0.00 | 0.07 | 0.07 | 53 | 1020.0 |
| 20260905161009 | 70 | 166 | 0.9 | 7.8 | 0.00 | 0.07 | 0.07 | 53 | 1020.0 |
| 20260905160509 | 70 | 47 | 1.7 | 7.8 | 0.00 | 0.07 | 0.07 | 52 | 1020.1 |
| 20260905160011 | 70 | 216 | 0.0 | 2.6 | 0.00 | 0.07 | 0.07 | 53 | 1020.0 |
| 20260905155510 | 70 | 253 | 0.0 | 3.5 | 0.00 | 0.07 | 0.07 | 55 | 1019.9 |
| 20260905155008 | 70 | 116 | 0.0 | 5.2 | 0.00 | 0.07 | 0.07 | 53 | 1019.9 |
| 20260905154508 | 69 | 204 | 0.0 | 6.1 | 0.00 | 0.07 | 0.07 | 54 | 1019.9 |
| 20260905154008 | 69 | 14 | 0.9 | 6.1 | 0.00 | 0.07 | 0.07 | 54 | 1019.8 |
| 20260905153508 | 70 | 312 | 0.0 | 3.5 | 0.00 | 0.07 | 0.07 | 54 | 1019.9 |
| 20260905153010 | 71 | 206 | 0.9 | 3.5 | 0.00 | 0.07 | 0.07 | 53 | 1019.8 |
| 20260905152507 | 71 | 277 | 0.9 | 3.5 | 0.00 | 0.07 | 0.07 | 53 | 1019.8 |
| 20260905152007 | 71 | 248 | 0.9 | 3.5 | 0.00 | 0.07 | 0.07 | 54 | 1019.7 |
| 20260905151507 | 70 | 148 | 0.9 | 2.6 | 0.00 | 0.07 | 0.07 | 55 | 1019.7 |
| 20260905151007 | 70 | 47 | 0.0 | 2.6 | 0.00 | 0.07 | 0.07 | 56 | 1019.8 |
| 20260905150506 | 70 | 324 | 0.0 | 6.1 | 0.00 | 0.07 | 0.07 | 56 | 1019.8 |
| 20260905150006 | 70 | 219 | 0.9 | 6.1 | 0.00 | 0.07 | 0.07 | 56 | 1019.7 |
| 20260905145506 | 70 | 210 | 0.0 | 4.3 | 0.00 | 0.07 | 0.07 | 57 | 1019.8 |
| 20260905145006 | 71 | 56 | 0.9 | 4.3 | 0.00 | 0.07 | 0.07 | 53 | 1019.7 |
| 20260905144506 | 72 | 245 | 0.0 | 6.1 | 0.00 | 0.07 | 0.07 | 53 | 1019.7 |
| 20260905144005 | 72 | 299 | 0.9 | 6.1 | 0.00 | 0.07 | 0.07 | 55 | 1019.6 |
| 20260905143507 | 72 | 124 | 0.9 | 6.1 | 0.00 | 0.07 | 0.07 | 54 | 1019.5 |
| 20260905143015 | 71 | 274 | 0.9 | 6.1 | 0.00 | 0.07 | 0.07 | 53 | 1019.7 |
| 20260905142506 | 72 | 203 | 0.9 | 5.2 | 0.00 | 0.07 | 0.07 | 53 | 1019.6 |
| 20260905142004 | 71 | 275 | 0.9 | 5.2 | 0.00 | 0.07 | 0.07 | 54 | 1019.6 |
| 20260905141503 | 70 | 322 | 0.9 | 5.2 | 0.00 | 0.07 | 0.07 | 55 | 1019.6 |
| 20260905141005 | 70 | 266 | 0.9 | 4.3 | 0.00 | 0.07 | 0.07 | 54 | 1019.6 |
| 20260905140504 | 70 | 219 | 0.9 | 4.3 | 0.00 | 0.07 | 0.07 | 54 | 1019.8 |
| 20260905140004 | 71 | 223 | 0.9 | 3.5 | 0.00 | 0.07 | 0.07 | 54 | 1019.6 |
| 20260905135504 | 71 | 245 | 0.9 | 5.2 | 0.00 | 0.07 | 0.07 | 56 | 1019.7 |
| 20260905135004 | 70 | 210 | 0.9 | 3.5 | 0.00 | 0.07 | 0.07 | 56 | 1019.6 |
| 20260905134507 | 70 | 168 | 0.0 | 3.5 | 0.00 | 0.07 | 0.07 | 57 | 1019.7 |
| 20260905134003 | 70 | 255 | 0.0 | 5.2 | 0.00 | 0.07 | 0.07 | 58 | 1019.7 |
| 20260905133503 | 71 | 35 | 0.9 | 5.2 | 0.00 | 0.07 | 0.07 | 57 | 1019.7 |
| 20260905133002 | 72 | 20 | 0.9 | 4.3 | 0.00 | 0.07 | 0.07 | 55 | 1019.7 |
| 20260905132502 | 72 | 243 | 0.9 | 4.3 | 0.00 | 0.07 | 0.07 | 57 | 1019.8 |
| 20260905132002 | 72 | 261 | 0.9 | 6.1 | 0.00 | 0.07 | 0.07 | 57 | 1019.7 |
| 20260905131501 | 72 | 286 | 1.7 | 6.1 | 0.00 | 0.07 | 0.07 | 58 | 1019.8 |
| 20260905131001 | 72 | 360 | 0.9 | 3.5 | 0.00 | 0.07 | 0.07 | 58 | 1019.7 |
| 20260905130502 | 71 | 45 | 0.9 | 7.0 | 0.00 | 0.07 | 0.07 | 59 | 1019.7 |
| 20260905130002 | 71 | 77 | 0.9 | 3.5 | 0.00 | 0.07 | 0.07 | 59 | 1019.7 |
| 20260905125502 | 70 | 275 | 0.0 | 4.3 | 0.00 | 0.07 | 0.07 | 60 | 1019.8 |
| 20260905125101 | 69 | 195 | 0.9 | 4.3 | 0.00 | 0.07 | 0.07 | 58 | 1019.8 |
| 20260905125001 | 69 | 210 | 0.9 | 4.3 | 0.00 | 0.07 | 0.07 | 59 | 1019.8 |
| 20260905124602 | 69 | 222 | 0.0 | 4.3 | 0.00 | 0.07 | 0.07 | 59 | 1019.9 |
| 20260905124100 | 70 | 180 | 0.0 | 4.3 | 0.00 | 0.07 | 0.07 | 58 | 1019.9 |
| 20260905123600 | 70 | 210 | 0.0 | 5.2 | 0.00 | 0.07 | 0.07 | 61 | 1019.9 |
| 20260905123101 | 71 | 228 | 0.9 | 6.1 | 0.00 | 0.07 | 0.07 | 59 | 1020.0 |
| 20260905122559 | 70 | 293 | 0.0 | 6.1 | 0.00 | 0.07 | 0.07 | 62 | 1019.9 |
| 20260905122059 | 69 | 241 | 1.7 | 7.8 | 0.00 | 0.07 | 0.07 | 59 | 1020.1 |
| 20260905121557 | 68 | 33 | 0.9 | 7.8 | 0.00 | 0.07 | 0.07 | 61 | 1020.0 |
| 20260905121058 | 68 | 203 | 0.0 | 3.5 | 0.00 | 0.07 | 0.07 | 62 | 1020.0 |
| 20260905120600 | 68 | 128 | 0.0 | 7.8 | 0.00 | 0.07 | 0.07 | 64 | 1020.1 |
| 20260905120108 | 69 | 176 | 0.9 | 7.8 | 0.00 | 0.07 | 0.07 | 62 | 1020.1 |
| 20260905115559 | 69 | 294 | 0.0 | 2.6 | 0.00 | 0.07 | 0.07 | 64 | 1020.2 |
| 20260905115057 | 69 | 203 | 0.0 | 3.5 | 0.00 | 0.07 | 0.07 | 64 | 1020.1 |
| 20260905114556 | 69 | 356 | 0.9 | 3.5 | 0.00 | 0.07 | 0.07 | 63 | 1020.1 |
| 20260905114057 | 69 | 292 | 0.9 | 4.3 | 0.00 | 0.07 | 0.07 | 63 | 1020.1 |
| 20260905113556 | 69 | 170 | 0.9 | 6.1 | 0.00 | 0.07 | 0.07 | 67 | 1020.2 |
| 20260905113055 | 67 | 191 | 0.9 | 6.1 | 0.00 | 0.07 | 0.07 | 64 | 1020.2 |
| 20260905112554 | 68 | 222 | 0.9 | 4.3 | 0.00 | 0.07 | 0.07 | 62 | 1020.3 |
| 20260905112155 | 68 | 334 | 0.9 | 3.5 | 0.00 | 0.07 | 0.07 | 63 | 1020.2 |
| 20260905111052 | 67 | 350 | 1.7 | 6.1 | 0.00 | 0.07 | 0.07 | 65 | 1020.3 |
| 20260905110555 | 68 | 184 | 0.9 | 4.3 | 0.00 | 0.07 | 0.07 | 67 | 1020.2 |
| 20260905110057 | 67 | 311 | 0.9 | 3.5 | 0.00 | 0.07 | 0.07 | 68 | 1020.3 |
| 20260905105551 | 67 | 241 | 0.9 | 3.5 | 0.00 | 0.07 | 0.07 | 66 | 1020.2 |
| 20260905105050 | 66 | 207 | 0.9 | 4.3 | 0.00 | 0.07 | 0.07 | 67 | 1020.3 |
| 20260905104551 | 65 | 217 | 1.7 | 4.3 | 0.00 | 0.07 | 0.07 | 71 | 1020.3 |
| 20260905104050 | 66 | 171 | 0.9 | 7.8 | 0.00 | 0.07 | 0.07 | 70 | 1020.3 |
| 20260905103550 | 66 | 197 | 0.9 | 7.8 | 0.00 | 0.07 | 0.07 | 70 | 1020.3 |
| 20260905103050 | 66 | 124 | 0.9 | 2.6 | 0.00 | 0.07 | 0.07 | 70 | 1020.3 |
| 20260905102549 | 66 | 297 | 0.9 | 2.6 | 0.00 | 0.07 | 0.07 | 72 | 1020.3 |
| 20260905102049 | 66 | 195 | 0.0 | 2.6 | 0.00 | 0.07 | 0.07 | 71 | 1020.3 |
| 20260905101550 | 66 | 245 | 0.0 | 2.6 | 0.00 | 0.07 | 0.07 | 74 | 1020.4 |
| 20260905101048 | 65 | 268 | 0.0 | 4.3 | 0.00 | 0.07 | 0.07 | 72 | 1020.3 |
| 20260905100550 | 65 | 134 | 0.9 | 4.3 | 0.00 | 0.07 | 0.07 | 73 | 1020.4 |
| 20260905100049 | 65 | 192 | 0.9 | 7.0 | 0.00 | 0.07 | 0.07 | 73 | 1020.3 |
| 20260905095548 | 65 | 219 | 1.7 | 7.0 | 0.00 | 0.07 | 0.07 | 73 | 1020.4 |
| 20260905095050 | 64 | 197 | 1.7 | 6.1 | 0.00 | 0.07 | 0.07 | 75 | 1020.4 |
| 20260905094548 | 63 | 237 | 0.9 | 3.5 | 0.00 | 0.07 | 0.07 | 75 | 1020.4 |
| 20260905094047 | 63 | 186 | 0.9 | 6.1 | 0.00 | 0.07 | 0.07 | 75 | 1020.4 |
| 20260905093547 | 63 | 226 | 1.7 | 6.1 | 0.00 | 0.07 | 0.07 | 74 | 1020.5 |
| 20260905093047 | 64 | 321 | 0.0 | 4.3 | 0.00 | 0.07 | 0.07 | 75 | 1020.4 |
| 20260905092547 | 64 | 295 | 0.9 | 4.3 | 0.00 | 0.07 | 0.07 | 78 | 1020.5 |
| 20260905092049 | 63 | 278 | 0.9 | 4.3 | 0.00 | 0.07 | 0.07 | 77 | 1020.4 |
| 20260905091546 | 63 | 349 | 0.0 | 5.2 | 0.00 | 0.07 | 0.07 | 76 | 1020.4 |
| 20260905091045 | 64 | 71 | 0.9 | 2.6 | 0.00 | 0.07 | 0.07 | 77 | 1020.4 |
| 20260905090548 | 63 | 278 | 0.0 | 2.6 | 0.00 | 0.07 | 0.07 | 78 | 1020.3 |
| 20260905090045 | 63 | 210 | 0.0 | 3.5 | 0.00 | 0.07 | 0.07 | 79 | 1020.2 |
| 20260905085544 | 62 | 222 | 0.9 | 5.2 | 0.00 | 0.07 | 0.07 | 79 | 1020.3 |
| 20260905085045 | 62 | 350 | 0.9 | 5.2 | 0.00 | 0.07 | 0.07 | 80 | 1020.2 |
| 20260905084543 | 61 | 214 | 0.9 | 3.5 | 0.00 | 0.07 | 0.07 | 81 | 1020.2 |
| 20260905084045 | 61 | 193 | 0.0 | 3.5 | 0.00 | 0.07 | 0.07 | 81 | 1020.3 |
| 20260905083542 | 61 | 206 | 0.9 | 3.5 | 0.00 | 0.07 | 0.07 | 82 | 1020.3 |
| 20260905083045 | 61 | 174 | 0.9 | 3.5 | 0.00 | 0.07 | 0.07 | 83 | 1020.3 |
| 20260905082542 | 60 | 135 | 0.0 | 2.6 | 0.00 | 0.07 | 0.07 | 85 | 1020.3 |
| 20260905082044 | 60 | 96 | 0.0 | 2.6 | 0.00 | 0.07 | 0.07 | 84 | 1020.3 |
| 20260905081541 | 60 | 331 | 0.9 | 2.6 | 0.00 | 0.07 | 0.07 | 84 | 1020.3 |
| 20260905081041 | 60 | 153 | 0.9 | 5.2 | 0.00 | 0.07 | 0.07 | 84 | 1020.2 |
| 20260905080540 | 59 | 287 | 0.9 | 5.2 | 0.00 | 0.07 | 0.07 | 85 | 1020.1 |
| 20260905080139 | 59 | 290 | 0.9 | 3.5 | 0.00 | 0.07 | 0.07 | 86 | 1020.0 |
| 20260905075528 | 58 | 220 | 0.0 | 2.6 | 0.00 | 0.07 | 0.07 | 87 | 1020.0 |
| 20260905075027 | 58 | 68 | 0.9 | 2.6 | 0.00 | 0.07 | 0.07 | 87 | 1020.0 |
| 20260905074527 | 58 | 284 | 0.9 | 2.6 | 0.00 | 0.07 | 0.07 | 88 | 1020.0 |
| 20260905074027 | 58 | 99 | 0.9 | 3.5 | 0.00 | 0.07 | 0.07 | 89 | 1019.9 |
| 20260905073528 | 58 | 177 | 0.0 | 3.5 | 0.00 | 0.07 | 0.07 | 89 | 1019.8 |
| 20260905073026 | 57 | 226 | 0.0 | 3.5 | 0.00 | 0.07 | 0.07 | 90 | 1019.8 |
| 20260905072525 | 57 | 299 | 0.9 | 5.2 | 0.00 | 0.07 | 0.07 | 91 | 1019.8 |
| 20260905072024 | 57 | 127 | 0.9 | 5.2 | 0.00 | 0.07 | 0.07 | 91 | 1019.7 |
| 20260905071537 | 57 | 265 | 0.0 | 2.6 | 0.00 | 0.07 | 0.07 | 92 | 1019.7 |
| 20260905071023 | 57 | 255 | 0.9 | 2.6 | 0.00 | 0.07 | 0.07 | 92 | 1019.6 |
| 20260905070523 | 56 | 218 | 0.9 | 2.6 | 0.00 | 0.07 | 0.07 | 92 | 1019.7 |
| 20260905065547 | 56 | 141 | 0.9 | 3.5 | 0.00 | 0.07 | 0.07 | 93 | 1019.6 |
| 20260905065050 | 56 | 284 | 0.0 | 2.6 | 0.00 | 0.07 | 0.07 | 93 | 1019.5 |
| 20260905064547 | 56 | 24 | 0.0 | 2.6 | 0.00 | 0.07 | 0.07 | 93 | 1019.5 |
| 20260905064049 | 56 | 61 | 0.0 | 1.7 | 0.00 | 0.07 | 0.07 | 93 | 1019.5 |
| 20260905063547 | 56 | 280 | 0.0 | 2.6 | 0.00 | 0.07 | 0.07 | 94 | 1019.5 |
| 20260905063046 | 57 | 239 | 0.0 | 2.6 | 0.00 | 0.07 | 0.07 | 94 | 1019.6 |
| 20260905062547 | 57 | 25 | 0.0 | 2.6 | 0.00 | 0.07 | 0.07 | 94 | 1019.6 |
| 20260905062048 | 57 | 88 | 0.0 | 1.7 | 0.00 | 0.07 | 0.07 | 94 | 1019.5 |
| 20260905061544 | 57 | 70 | 0.0 | 1.7 | 0.00 | 0.07 | 0.07 | 94 | 1019.4 |
| 20260905061046 | 56 | 54 | 0.0 | 1.7 | 0.00 | 0.07 | 0.07 | 94 | 1019.4 |
| 20260905060546 | 56 | 126 | 0.0 | 0.0 | 0.00 | 0.07 | 0.07 | 94 | 1019.3 |
| 20260905060042 | 56 | 126 | 0.0 | 0.0 | 0.00 | 0.07 | 0.07 | 94 | 1019.2 |
| 20260905055541 | 56 | 126 | 0.0 | 0.0 | 0.00 | 0.07 | 0.07 | 94 | 1019.2 |
| 20260905055042 | 56 | 126 | 0.0 | 0.0 | 0.00 | 0.07 | 0.07 | 94 | 1019.2 |
| 20260905054545 | 55 | 126 | 0.0 | 0.0 | 0.00 | 0.07 | 0.07 | 93 | 1019.1 |
| 20260905054040 | 56 | 126 | 0.0 | 0.9 | 0.00 | 0.07 | 0.07 | 94 | 1019.0 |
| 20260905053539 | 56 | 126 | 0.0 | 0.9 | 0.00 | 0.07 | 0.07 | 94 | 1019.0 |
| 20260905053050 | 56 | 126 | 0.0 | 0.0 | 0.00 | 0.07 | 0.07 | 93 | 1018.9 |
| 20260905052537 | 55 | 126 | 0.0 | 0.0 | 0.00 | 0.07 | 0.07 | 93 | 1018.8 |
| 20260905052038 | 56 | 126 | 0.0 | 0.9 | 0.00 | 0.07 | 0.07 | 93 | 1018.7 |
| 20260905051536 | 55 | 126 | 0.0 | 0.9 | 0.00 | 0.07 | 0.07 | 93 | 1018.6 |
| 20260905051035 | 55 | 126 | 0.0 | 0.9 | 0.01 | 0.07 | 0.07 | 93 | 1018.7 |
| 20260905050534 | 55 | 126 | 0.0 | 0.9 | 0.02 | 0.07 | 0.07 | 93 | 1018.4 |
| 20260905050034 | 55 | 126 | 0.0 | 2.6 | 0.02 | 0.07 | 0.07 | 93 | 1018.1 |
| 20260905045533 | 55 | 132 | 0.0 | 1.7 | 0.02 | 0.07 | 0.07 | 92 | 1018.1 |
| 20260905045033 | 56 | 131 | 0.0 | 1.7 | 0.03 | 0.07 | 0.07 | 92 | 1017.9 |
| 20260905044633 | 56 | 131 | 0.0 | 1.7 | 0.03 | 0.07 | 0.07 | 92 | 1017.8 |
| 20260905044033 | 56 | 131 | 0.0 | 1.7 | 0.04 | 0.07 | 0.07 | 92 | 1017.6 |
| 20260905043532 | 56 | 131 | 0.0 | 1.7 | 0.06 | 0.07 | 0.07 | 92 | 1017.5 |
| 20260905043031 | 56 | 129 | 0.0 | 1.7 | 0.06 | 0.07 | 0.07 | 92 | 1017.5 |
| 20260905042531 | 56 | 129 | 0.0 | 0.9 | 0.07 | 0.07 | 0.07 | 92 | 1017.4 |
| 20260905042030 | 56 | 129 | 0.0 | 1.7 | 0.07 | 0.07 | 0.07 | 91 | 1017.4 |
| 20260905041529 | 56 | 37 | 0.0 | 1.7 | 0.07 | 0.07 | 0.07 | 91 | 1016.9 |
| 20260905041028 | 56 | 37 | 0.0 | 1.7 | 0.06 | 0.06 | 0.06 | 91 | 1017.4 |
| 20260905040530 | 57 | 122 | 0.0 | 0.9 | 0.06 | 0.06 | 0.06 | 91 | 1017.5 |
| 20260905040027 | 57 | 122 | 0.0 | 0.9 | 0.05 | 0.05 | 0.05 | 90 | 1017.6 |
| 20260905035525 | 57 | 122 | 0.0 | 0.9 | 0.04 | 0.04 | 0.04 | 90 | 1017.7 |
| 20260905035025 | 57 | 122 | 0.0 | 1.7 | 0.04 | 0.04 | 0.04 | 90 | 1017.9 |
| 20260905034525 | 58 | 122 | 0.0 | 1.7 | 0.04 | 0.04 | 0.04 | 89 | 1017.9 |
| 20260905034023 | 58 | 290 | 0.0 | 0.9 | 0.03 | 0.03 | 0.03 | 88 | 1018.0 |
| 20260905033522 | 59 | 297 | 0.0 | 1.7 | 0.02 | 0.02 | 0.02 | 87 | 1018.1 |
| 20260905033021 | 59 | 257 | 0.0 | 1.7 | 0.01 | 0.01 | 0.01 | 86 | 1018.1 |
| 20260905032519 | 59 | 258 | 0.0 | 0.9 | 0.00 | 0.00 | 0.00 | 85 | 1018.2 |
| 20260905032018 | 59 | 257 | 0.0 | 0.9 | 0.00 | 0.00 | 0.00 | 83 | 1017.9 |
| 20260905031519 | 59 | 290 | 0.0 | 0.9 | 0.00 | 0.00 | 0.00 | 83 | 1017.7 |
| 20260905031018 | 59 | 279 | 0.0 | 3.5 | 0.00 | 0.00 | 0.00 | 83 | 1017.5 |
| 20260905030517 | 60 | 237 | 0.0 | 2.6 | 0.00 | 0.00 | 0.00 | 82 | 1017.5 |
| 20260905030018 | 60 | 213 | 0.0 | 6.1 | 0.00 | 0.00 | 0.00 | 82 | 1017.8 |
| 20260905025519 | 61 | 262 | 0.0 | 6.1 | 0.00 | 0.00 | 0.00 | 80 | 1018.0 |
| 20260905025015 | 61 | 288 | 0.0 | 4.3 | 0.00 | 0.00 | 0.00 | 80 | 1018.0 |
| 20260905024516 | 60 | 352 | 0.0 | 2.6 | 0.00 | 0.00 | 0.00 | 80 | 1018.1 |
| 20260905024019 | 60 | 37 | 0.0 | 1.7 | 0.00 | 0.00 | 0.00 | 80 | 1017.7 |
| 20260905023514 | 60 | 222 | 0.0 | 1.7 | 0.00 | 0.00 | 0.00 | 79 | 1016.7 |
| 20260905023019 | 60 | 223 | 0.0 | 1.7 | 0.00 | 0.00 | 0.00 | 79 | 1016.9 |
| 20260905022512 | 60 | 212 | 0.0 | 0.0 | 0.00 | 0.00 | 0.00 | 78 | 1016.8 |
| 20260905022014 | 60 | 212 | 0.0 | 1.7 | 0.00 | 0.00 | 0.00 | 76 | 1016.6 |
| 20260905021511 | 60 | 213 | 0.0 | 2.6 | 0.00 | 0.00 | 0.00 | 75 | 1016.5 |
| 20260905021010 | 61 | 48 | 0.0 | 2.6 | 0.00 | 0.00 | 0.00 | 75 | 1017.1 |
| 20260905020509 | 61 | 305 | 0.0 | 1.7 | 0.00 | 0.00 | 0.00 | 75 | 1016.8 |
| 20260905020009 | 61 | 99 | 0.0 | 2.6 | 0.00 | 0.00 | 0.00 | 73 | 1016.3 |
| 20260905015508 | 61 | 127 | 0.9 | 3.5 | 0.00 | 0.00 | 0.00 | 73 | 1016.5 |
| 20260905015007 | 62 | 247 | 0.9 | 3.5 | 0.00 | 0.00 | 0.00 | 73 | 1017.0 |
| 20260905014506 | 62 | 218 | 0.0 | 3.5 | 0.00 | 0.00 | 0.00 | 73 | 1016.7 |
| 20260905014004 | 63 | 182 | 0.9 | 3.5 | 0.00 | 0.00 | 0.00 | 71 | 1016.4 |
| 20260905013503 | 63 | 275 | 0.0 | 2.6 | 0.00 | 0.00 | 0.00 | 70 | 1016.3 |
| 20260905013003 | 63 | 265 | 0.9 | 2.6 | 0.00 | 0.00 | 0.00 | 70 | 1016.2 |
| 20260905012503 | 64 | 48 | 0.9 | 2.6 | 0.00 | 0.00 | 0.00 | 69 | 1015.9 |
| 20260905012002 | 64 | 180 | 0.0 | 7.8 | 0.00 | 0.00 | 0.00 | 69 | 1016.2 |
| 20260905011502 | 64 | 212 | 0.9 | 6.1 | 0.00 | 0.00 | 0.00 | 69 | 1016.0 |
| 20260905011003 | 63 | 63 | 0.9 | 3.5 | 0.00 | 0.00 | 0.00 | 72 | 1016.1 |
| 20260905010501 | 63 | 243 | 0.9 | 3.5 | 0.00 | 0.00 | 0.00 | 73 | 1016.2 |
| 20260905010001 | 63 | 289 | 0.0 | 1.7 | 0.00 | 0.00 | 0.00 | 73 | 1016.2 |
| 20260905005502 | 63 | 228 | 0.0 | 1.7 | 0.00 | 0.00 | 0.00 | 73 | 1016.0 |
| 20260905005000 | 63 | 230 | 0.0 | 1.7 | 0.00 | 0.00 | 0.00 | 72 | 1016.0 |
| 20260905004501 | 63 | 360 | 0.0 | 1.7 | 0.00 | 0.00 | 0.00 | 72 | 1015.7 |
| 20260905004000 | 63 | 303 | 0.0 | 4.3 | 0.00 | 0.00 | 0.00 | 73 | 1015.8 |
| 20260905003502 | 63 | 205 | 0.0 | 4.3 | 0.00 | 0.00 | 0.00 | 73 | 1015.8 |
| 20260905003100 | 63 | 216 | 0.0 | 3.5 | 0.00 | 0.00 | 0.00 | 72 | 1015.8 |
| 20260905002602 | 64 | 197 | 0.9 | 4.3 | 0.00 | 0.00 | 0.00 | 72 | 1015.7 |
| 20260905002058 | 64 | 340 | 0.9 | 3.5 | 0.00 | 0.00 | 0.00 | 72 | 1015.6 |
| 20260905001558 | 64 | 203 | 0.9 | 3.5 | 0.00 | 0.00 | 0.00 | 70 | 1015.8 |
| 20260905001057 | 64 | 210 | 0.0 | 3.5 | 0.00 | 0.00 | 0.00 | 70 | 1016.0 |
| 20260905000557 | 64 | 262 | 0.0 | 7.0 | 0.00 | 0.00 | 0.00 | 70 | 1015.9 |
| 20260905000057 | 64 | 313 | 1.7 | 7.0 | 0.00 | 0.00 | 0.00 | 71 | 1016.0 |
| 20260904235600 | 65 | 35 | 0.9 | 7.0 | 0.00 | 0.00 | 0.00 | 72 | 1015.8 |
| 20260904235056 | 64 | 135 | 1.7 | 7.0 | 0.00 | 0.00 | 0.00 | 73 | 1016.2 |
| 20260904234558 | 64 | 56 | 0.9 | 7.8 | 0.00 | 0.00 | 0.00 | 74 | 1016.1 |
| 20260904234055 | 64 | 201 | 0.9 | 7.8 | 0.00 | 0.00 | 0.00 | 75 | 1016.2 |
| 20260904233558 | 64 | 213 | 1.7 | 7.8 | 0.00 | 0.00 | 0.00 | 76 | 1016.0 |
| 20260904233055 | 64 | 292 | 1.7 | 5.2 | 0.00 | 0.00 | 0.00 | 77 | 1015.8 |
| 20260904232554 | 64 | 274 | 0.0 | 4.3 | 0.00 | 0.00 | 0.00 | 77 | 1016.1 |
| 20260904232053 | 64 | 78 | 0.0 | 3.5 | 0.00 | 0.00 | 0.00 | 77 | 1015.7 |
| 20260904231553 | 64 | 224 | 0.0 | 3.5 | 0.00 | 0.00 | 0.00 | 77 | 1015.8 |
| 20260904231051 | 64 | 280 | 0.0 | 4.3 | 0.00 | 0.00 | 0.00 | 77 | 1015.6 |
| 20260904230550 | 64 | 159 | 0.9 | 7.8 | 0.00 | 0.00 | 0.00 | 76 | 1015.2 |
| 20260904230003 | 64 | 324 | 1.7 | 7.8 | 0.00 | 0.00 | 0.00 | 76 | 1014.8 |
| 20260904225501 | 65 | 31 | 1.7 | 8.7 | 0.00 | 0.00 | 0.00 | 75 | 1014.4 |
| 20260904225100 | 65 | 49 | 1.7 | 8.7 | 0.00 | 0.00 | 0.00 | 74 | 1014.5 |
| 20260904224608 | 66 | 64 | 1.7 | 7.0 | 0.00 | 0.00 | 0.00 | 73 | 1014.3 |
| 20260904224058 | 67 | 132 | 0.9 | 4.3 | 0.00 | 0.00 | 0.00 | 73 | 1014.2 |